FW3958 Weather Reports


Display with metric or nautical units.
time (UTC)temp
F
wind
direction
speed
MPH
gust
MPH
rain 1hr
in
rain 24hr
in
rain mn
in
humidity
%
barometer
mb
20260902163038 58 124 2.0 4.0 0.03 0.05 0.05 100 1007.0
20260902161534 58 127 0.0 2.0 0.02 0.04 0.04 100 1007.1
20260902160032 57 126 1.0 6.0 0.02 0.04 0.04 100 1007.3
20260902154531 57 153 0.0 3.0 0.01 0.03 0.03 100 1007.4
20260902153030 57 118 1.0 6.0 0.01 0.02 0.02 99 1007.5
20260902151529 57 125 3.0 8.0 0.01 0.02 0.02 99 1007.6
20260902150027 58 126 0.0 6.0 0.01 0.02 0.02 99 1007.6
20260902144534 58 161 0.0 4.0 0.01 0.02 0.02 99 1007.8
20260902143025 58 131 1.0 6.0 0.00 0.01 0.01 98 1007.9
20260902141530 58 111 0.0 4.0 0.00 0.01 0.01 98 1007.8
20260902140033 58 118 0.0 3.0 0.00 0.01 0.01 97 1008.0
20260902134522 58 114 1.0 5.0 0.00 0.01 0.01 96 1008.0
20260902133020 58 139 3.0 6.0 0.00 0.01 0.01 96 1008.1
20260902131530 58 107 2.0 6.0 0.00 0.01 0.01 97 1008.2
20260902130015 57 179 0.0 8.0 0.00 0.01 0.01 99 1008.6
20260902124514 57 149 0.0 2.0 0.00 0.01 0.01 100 1008.7
20260902123015 57 154 0.0 0.0 0.00 0.01 0.01 100 1009.1
20260902121509 57 154 0.0 4.0 0.00 0.01 0.01 100 1009.3
20260902120008 57 129 0.0 5.0 0.00 0.01 0.01 100 1009.4
20260902114508 57 108 1.0 3.0 0.00 0.01 0.01 100 1009.7
20260902113004 57 124 1.0 3.0 0.00 0.01 0.01 100 1010.0
20260902111502 57 158 0.0 3.0 0.00 0.01 0.01 100 1010.2
20260902110001 57 155 0.0 1.0 0.00 0.01 0.01 100 1010.4
20260902104601 57 155 0.0 1.0 0.00 0.01 0.01 100 1010.3
20260902103105 57 155 0.0 1.0 0.00 0.01 0.01 100 1010.4
20260902101558 57 159 0.0 3.0 0.01 0.01 0.01 100 1010.4
20260902100112 57 160 0.0 1.0 0.01 0.01 0.01 100 1010.6
20260902094555 57 160 0.0 3.0 0.01 0.01 0.01 100 1010.7
20260902093054 58 133 0.0 3.0 0.01 0.01 0.01 100 1010.7
20260902091606 58 109 3.0 9.0 0.00 0.00 0.00 100 1011.0
20260902090051 58 197 1.0 6.0 0.00 0.00 0.00 100 1011.4
20260902084548 58 180 2.0 5.0 0.00 0.00 0.00 100 1011.4
20260902083046 58 170 2.0 9.0 0.00 0.00 0.00 100 1011.4
20260902081546 58 174 6.0 9.0 0.00 0.00 0.00 99 1011.5
20260902080058 59 188 6.0 13.0 0.00 0.00 0.00 99 1011.7
20260902074542 59 193 7.0 15.0 0.00 0.00 0.00 99 1011.8
20260902073038 59 189 7.0 15.0 0.00 0.00 0.00 99 1011.8
20260902071552 58 188 3.0 8.0 0.00 0.00 0.00 98 1012.0
20260902070032 57 174 0.0 2.0 0.00 0.00 0.00 96 1012.0
20260902064532 57 174 0.0 1.0 0.00 0.00 0.00 96 1012.2
20260902063041 57 174 0.0 1.0 0.00 0.00 0.00 96 1012.1
20260902061541 56 174 0.0 0.0 0.00 0.00 0.00 95 1012.1
20260902060032 57 174 0.0 0.0 0.00 0.00 0.00 93 1012.3
20260902054535 58 174 0.0 1.0 0.00 0.00 0.00 91 1012.4
20260902053027 59 174 0.0 2.0 0.00 0.00 0.00 91 1012.5
20260902051529 59 136 0.0 2.0 0.00 0.00 0.00 90 1012.4
20260902050031 59 176 0.0 3.0 0.00 0.00 0.00 91 1012.5
20260902044529 59 178 1.0 3.0 0.00 0.00 0.00 92 1012.8
20260902043021 60 178 0.0 2.0 0.00 0.00 0.00 91 1012.6
20260902041531 60 178 0.0 1.0 0.00 0.00 0.00 91 1012.7
20260902040020 60 178 0.0 0.0 0.00 0.00 0.00 90 1012.8
20260902034520 60 178 0.0 1.0 0.00 0.00 0.00 89 1012.8
20260902033020 61 177 1.0 4.0 0.00 0.00 0.00 89 1012.9
20260902031518 60 209 2.0 7.0 0.00 0.00 0.00 89 1012.8
20260902030022 61 199 3.0 8.0 0.00 0.00 0.00 89 1012.7
20260902024516 61 183 4.0 10.0 0.00 0.00 0.00 89 1012.8
20260902023019 61 205 4.0 12.0 0.00 0.00 0.00 88 1012.8
20260902021518 62 226 8.0 12.0 0.00 0.00 0.00 88 1013.0
20260902020015 62 214 5.0 11.0 0.00 0.00 0.00 87 1013.2
20260902014522 63 198 5.0 11.0 0.00 0.00 0.00 87 1013.1
20260902013015 64 205 7.0 15.0 0.00 0.00 0.00 86 1013.2
20260902011547 64 212 5.0 15.0 0.00 0.00 0.00 86 1013.2
20260902010022 65 215 5.0 13.0 0.00 0.00 0.00 85 1013.1
20260902004516 65 220 8.0 15.0 0.00 0.00 0.00 84 1013.0
20260902003010 65 251 8.0 16.0 0.00 0.00 0.00 85 1013.1
20260902001512 65 213 8.0 13.0 0.00 0.00 0.00 84 1013.0
20260902000015 65 174 8.0 13.0 0.00 0.00 0.00 84 1013.0
20260901234509 66 261 5.0 14.0 0.00 0.00 0.00 84 1013.0
20260901233010 67 195 8.0 14.0 0.00 0.00 0.00 80 1013.0
20260901231508 68 189 8.0 17.0 0.00 0.00 0.00 77 1013.2
20260901230011 69 211 11.0 18.0 0.00 0.00 0.00 76 1013.2
20260901224506 68 203 5.0 20.0 0.00 0.00 0.00 77 1013.2
20260901223014 68 205 11.0 20.0 0.00 0.00 0.00 77 1013.3
20260901221502 67 222 2.0 16.0 0.00 0.00 0.00 79 1013.1
20260901220001 67 201 7.0 17.0 0.00 0.00 0.00 81 1013.1
20260901214501 66 219 9.0 15.0 0.00 0.00 0.00 82 1013.1
20260901213108 66 197 11.0 18.0 0.00 0.00 0.00 83 1013.1
20260901211600 66 197 10.0 17.0 0.00 0.00 0.00 83 1013.2
20260901210059 67 199 5.0 15.0 0.00 0.00 0.00 83 1013.2
20260901204559 66 255 7.0 17.0 0.00 0.00 0.00 82 1013.2
20260901203104 67 214 7.0 16.0 0.00 0.00 0.00 82 1013.2
20260901201556 66 222 7.0 15.0 0.00 0.00 0.00 84 1013.1
20260901200106 66 294 3.0 13.0 0.00 0.00 0.00 85 1013.2
20260901194603 66 268 7.0 16.0 0.00 0.00 0.00 84 1013.4
20260901193101 66 202 4.0 12.0 0.00 0.00 0.00 88 1013.5
20260901191553 66 219 6.0 13.0 0.00 0.00 0.00 87 1013.5
20260901184552 66 194 6.0 14.0 0.00 0.00 0.00 85 1013.7
20260901183051 66 262 4.0 12.0 0.00 0.00 0.00 86 1013.6
20260901181549 65 198 1.0 10.0 0.00 0.00 0.00 87 1013.5
20260901180046 65 216 5.0 14.0 0.00 0.00 0.00 87 1013.5
20260901174556 65 243 3.0 13.0 0.00 0.00 0.00 88 1013.5
20260901173039 64 199 5.0 11.0 0.00 0.00 0.00 91 1013.4
20260901171539 63 212 6.0 10.0 0.00 0.00 0.00 91 1013.4
20260901170112 63 206 6.0 12.0 0.00 0.00 0.00 90 1013.4
20260901164537 63 204 3.0 6.0 0.00 0.00 0.00 91 1013.3